星链-35295(STARLINK-35295)

导读

STARLINK-35295是美国SpaceX公司星链星座的一员,于2025年10月19日发射升空。星链项目旨在构建全球卫星互联网星座,为全球偏远地区及网络不发达区域提供高速互联网接入服务。该卫星加入星座后,进一步扩大了星链网络的覆盖范围,提升了系统服务能力,持续推进SpaceX的全球卫星互联布局。

Basic Information
目录编号:
66070
目录名称:
STARLINK-35295
国际标识:
2025-235N
轨道中心:
EARTH
卫星名称:
星链-35295
卫星全名:
星链-35295(STARLINK-35295)
卫星状态:
在轨 (已飞行321 天)
发射日期:
2025-10-19 UTC
国别 :
美国 (US)
星等 :
--
Orbit Information
数据来源 国际轨道数据
星历时间: 2026-09-04T13:00:53+0800
1天前
查看轨道信息
半长轴: 6840.825km
偏心率: 0.0001444
轨道倾角: 53.160°
近地点辐角 75.127°
升交点赤经 136.063°
平近点角 284.990°
近地点: 461.7km
远地点: 463.676km
周期: 93.847分钟
每日圈数: 15.344054
Detailed Information
固有亮度:
5
最大亮度:
2.5
卫星平台:
Starlink V1.0
覆盖范围:
全球
运营商:
太空探索技术公司
运营商所在国:
美国
制造商(研发单位):
太空探索技术公司
制造商所在国:
美国
使用方式:
暂无
Satellite Introduction
Starlink 计划是 SpaceX 推出的全球卫星互联网项目,通过发射低轨道卫星,为全球尤其是偏远地区提供高速、低延迟的互联网服务。自 2019 年起,Starlink 已部署数千颗卫星,旨在缩小全球数字鸿沟,推动互联网普及。该项目还为军事、航空等行业提供通信支持,带来广泛经济效益。
2D Orbit Map
3D Orbit Map
Orbit Altitude Analysis Chart
Orbit Inclination Analysis Chart
Orbit Comprehensive Analysis Chart
View Comprehensive Chart
Conjunction Data List
Event ID Objects TCA Miss Dist (km) Collision Risk Probability Collision Risk Index (CRI) Action
CDM_260906-230706-586606-607021
2026-09-06T
23:07:16+0000
0.243 km
中距离
4.257229E-4 高风险 0.88
CDM_260907-052406-015406-607021
2026-09-07T
05:24:49+0000
0.316 km
远距离
3.392959E-4 高风险 0.86
CDM_260907-043506-586606-607021
2026-09-07T
04:35:33+0000
1.194 km
极远距离
6.641221E-6 低风险 0.51
CDM_260907-035106-015406-607021
2026-09-07T
03:51:01+0000
2.306 km
极远距离
1.328071E-6 低风险 0.37
CDM_260907-065905-175806-607021
2026-09-07T
06:59:26+0000
2.489 km
极远距离
1.216962E-6 低风险 0.37
CDM_260906-003605-420006-607021
2026-09-06T
00:36:55+0000
2.968 km
极远距离
1.145154E-6 低风险 0.36
CDM_260907-060906-586606-607021
2026-09-07T
06:09:20+0000
2.208 km
极远距离
1.142558E-6 低风险 0.36
CDM_260906-025705-420006-607021
2026-09-06T
02:57:34+0000
2.980 km
极远距离
1.14041E-6 低风险 0.36
CDM_260906-213306-586606-607021
2026-09-06T
21:33:29+0000
2.854 km
极远距离
7.550711E-7 极低风险 0.33